Date String (YYYY-MM-DD hh:mm:ss) UTC,Instrument flags,Ambient pressure (hPa),Sample flow (lpm),Bypass flow (lpm),Sample temperature (°C),Ambient temperature (°C),ASC tube jacket temperature (°C),LED temperature (°C),Box temperature (°C),Sample RH (%),Span deviation,Mass concentration (μg/m³),Mass concentration (μg/m³),Mass concentration (μg/m³)
DateTimeUTC,F1_M11,P_M11,Q1_M11,Q2_M11,T1_M11,T2_M11,T3_M11,T4_M11,T5_M11,U1_M11,ZSPAN_M11,X0_M11,X2_M11,X1_M11
2021-12-08 10:00:00,,0821.1,5.00,0.00,22.4,21.8,00.0,31.3,24.2,11.8,0000.0,0020.49,0004.92,0003.12
2021-12-08 10:01:00,,0821.1,4.99,0.00,22.4,21.8,00.0,31.3,24.2,11.8,0000.0,0019.90,0004.89,0003.09
2021-12-08 10:02:00,,0821.1,5.01,0.00,22.4,21.8,00.0,31.4,24.2,11.8,0000.0,0020.31,0004.91,0003.07
2021-12-08 10:03:00,,0821.2,4.99,0.00,22.4,21.8,00.0,31.4,24.2,11.7,0000.0,0021.66,0004.96,0003.05
2021-12-08 10:04:00,,0821.1,4.99,0.00,22.4,21.8,00.0,31.4,24.2,11.7,0000.0,0021.49,0004.93,0003.05
2021-12-08 10:05:00,,0821.2,5.01,0.00,22.4,21.7,00.0,31.4,24.2,11.8,0000.0,0020.62,0004.84,0003.01
2021-12-08 10:06:00,,0821.1,5.00,0.00,22.4,21.7,00.0,31.4,24.2,11.7,0000.0,0019.69,0004.87,0003.02
2021-12-08 10:07:00,,0821.1,5.00,0.00,22.4,21.7,00.0,31.4,24.2,11.7,0000.0,0020.03,0004.88,0003.03
2021-12-08 10:08:00,,0821.2,5.00,0.00,22.4,21.7,00.0,31.4,24.2,11.7,0000.0,0020.19,0004.90,0003.01
2021-12-08 10:09:00,,0821.1,5.00,0.00,22.4,21.7,00.0,31.4,24.2,11.7,0000.0,0019.53,0004.88,0003.01
2021-12-08 10:10:00,,0821.1,4.99,0.00,22.4,21.7,00.0,31.4,24.2,11.7,0000.0,0019.30,0004.90,0003.01
2021-12-08 10:11:00,,0821.1,5.01,0.00,22.4,21.7,00.0,31.4,24.2,11.7,0000.0,0019.62,0004.95,0003.01
2021-12-08 10:12:00,,0821.1,5.00,0.00,22.4,21.7,00.0,31.4,24.2,11.7,0000.0,0019.48,0004.99,0003.02
2021-12-08 10:13:00,,0821.1,5.00,0.00,22.4,21.7,00.0,31.4,24.2,11.7,0000.0,0019.37,0004.95,0003.05
2021-12-08 10:14:00,,0821.2,5.01,0.00,22.4,21.7,00.0,31.4,24.2,11.7,0000.0,0019.01,0004.98,0003.06
2021-12-08 10:15:00,,0821.1,5.00,0.00,22.4,21.7,00.0,31.4,24.1,11.7,0000.0,0019.77,0005.04,0003.10
2021-12-08 10:16:00,,0821.1,4.99,0.00,22.4,21.7,00.0,31.4,24.1,11.7,0000.0,0020.89,0005.16,0003.13
2021-12-08 10:17:00,,0821.1,5.00,0.00,22.3,21.6,00.0,31.3,24.1,11.8,0000.0,0021.41,0005.16,0003.14
2021-12-08 10:18:00,,0821.0,5.01,0.00,22.3,21.6,00.0,31.3,24.1,11.8,0000.0,0018.94,0005.10,0003.16
2021-12-08 10:19:00,,0821.0,5.00,0.00,22.3,21.6,00.0,31.3,24.1,11.7,0000.0,0018.58,0005.08,0003.19
2021-12-08 10:20:00,,0820.9,5.00,0.00,22.3,21.6,00.0,31.3,24.1,11.8,0000.0,0018.81,0005.05,0003.19
2021-12-08 10:21:00,,0820.9,4.99,0.00,22.3,21.6,00.0,31.3,24.1,11.7,0000.0,0018.83,0005.01,0003.19
2021-12-08 10:22:00,,0820.9,4.99,0.00,22.3,21.6,00.0,31.3,24.1,11.7,0000.0,0018.11,0004.94,0003.18
2021-12-08 10:23:00,,0820.9,5.00,0.00,22.4,21.6,00.0,31.3,24.1,11.7,0000.0,0018.29,0004.91,0003.18
2021-12-08 10:24:00,,0820.9,5.01,0.00,22.3,21.6,00.0,31.3,24.1,11.8,0000.0,0018.71,0004.96,0003.19
2021-12-08 10:25:00,,0820.9,4.99,0.00,22.4,21.6,00.0,31.3,24.1,11.7,0000.0,0018.80,0004.89,0003.18
2021-12-08 10:26:00,,0820.9,5.00,0.00,22.3,21.6,00.0,31.3,24.1,11.7,0000.0,0017.55,0004.81,0003.14
2021-12-08 10:27:00,,0821.0,5.01,0.00,22.4,21.6,00.0,31.3,24.1,11.7,0000.0,0016.89,0004.81,0003.12
2021-12-08 10:28:00,,0820.9,5.00,0.00,22.4,21.6,00.0,31.3,24.1,11.8,0000.0,0016.20,0004.80,0003.10
2021-12-08 10:29:00,,0821.0,4.99,0.00,22.4,21.6,00.0,31.3,24.1,11.7,0000.0,0016.84,0004.91,0003.07
2021-12-08 10:30:00,,0821.0,4.99,0.00,22.4,21.6,00.0,31.3,24.1,11.7,0000.0,0017.22,0004.88,0003.02
2021-12-08 10:31:00,,0821.1,5.02,0.00,22.4,21.6,00.0,31.3,24.1,11.7,0000.0,0018.35,0004.89,0003.02
2021-12-08 10:32:00,,0821.1,5.00,0.00,22.3,21.6,00.0,31.3,24.1,11.7,0000.0,0019.42,0004.94,0003.03
2021-12-08 10:33:00,,0821.0,4.99,0.00,22.3,21.5,00.0,31.3,23.9,11.7,0000.0,0019.76,0004.98,0003.08
2021-12-08 10:34:00,,0820.9,5.01,0.00,22.2,21.4,00.0,31.3,23.9,11.8,0000.0,0019.92,0005.05,0003.10
2021-12-08 10:35:00,,0820.9,5.00,0.00,22.2,21.4,00.0,31.3,23.9,11.9,0000.0,0020.41,0005.09,0003.09
2021-12-08 10:36:00,,0820.9,5.00,0.00,22.2,21.4,00.0,31.3,23.8,11.9,0000.0,0019.90,0005.17,0003.11
2021-12-08 10:37:00,,0820.8,5.00,0.00,22.1,21.4,00.0,31.2,23.8,11.9,0000.0,0019.12,0005.20,0003.14
2021-12-08 10:38:00,,0820.7,5.00,0.00,22.1,21.3,00.0,31.2,23.8,11.9,0000.0,0019.28,0005.21,0003.16
2021-12-08 10:39:00,,0820.7,5.00,0.00,22.1,21.3,00.0,31.2,23.8,11.9,0000.0,0019.36,0005.19,0003.17
2021-12-08 10:40:00,,0820.6,5.01,0.00,22.1,21.3,00.0,31.2,23.8,11.9,0000.0,0019.20,0005.06,0003.18
2021-12-08 10:41:00,,0820.6,4.99,0.00,22.1,21.3,00.0,31.2,23.9,11.9,0000.0,0018.97,0005.00,0003.19
2021-12-08 10:42:00,,0820.7,5.01,0.00,22.1,21.4,00.0,31.2,23.9,12.0,0000.0,0017.96,0005.02,0003.20
2021-12-08 10:43:00,,0820.6,4.99,0.00,22.1,21.4,00.0,31.2,23.9,12.0,0000.0,0016.52,0005.04,0003.20
2021-12-08 10:44:00,,0820.6,5.00,0.00,22.1,21.4,00.0,31.2,23.9,12.0,0000.0,0016.87,0005.03,0003.19
2021-12-08 10:45:00,,0820.6,4.99,0.00,22.1,21.4,00.0,31.2,23.9,12.0,0000.0,0017.52,0005.01,0003.19
2021-12-08 10:46:00,,0820.6,5.01,0.00,22.1,21.4,00.0,31.2,23.9,12.1,0000.0,0016.25,0004.92,0003.19
2021-12-08 10:47:00,,0820.6,5.01,0.00,22.1,21.4,00.0,31.2,23.9,12.1,0000.0,0016.99,0004.87,0003.18
2021-12-08 10:48:00,,0820.6,5.00,0.00,22.2,21.8,00.0,31.2,24.0,12.1,0000.0,0018.26,0004.85,0003.18
2021-12-08 10:49:00,,0820.5,5.00,0.00,22.3,22.5,00.0,31.2,24.2,12.0,0000.0,0017.66,0004.76,0003.16
2021-12-08 10:50:00,,0820.6,5.00,0.00,22.4,22.9,00.0,31.3,24.4,12.0,0000.0,0018.06,0004.72,0003.14
2021-12-08 10:51:00,,0820.5,4.99,0.00,22.5,22.8,00.0,31.3,24.4,11.9,0000.0,0017.92,0004.73,0003.13
2021-12-08 10:52:00,,0820.6,5.00,0.00,22.5,22.6,00.0,31.3,24.4,11.9,0000.0,0017.35,0004.76,0003.12
2021-12-08 10:53:00,,0820.6,5.01,0.00,22.5,22.5,00.0,31.3,24.4,11.9,0000.0,0017.15,0004.75,0003.12
2021-12-08 10:54:00,,0820.6,5.00,0.00,22.5,22.4,00.0,31.3,24.4,11.9,0000.0,0017.55,0004.75,0003.14
2021-12-08 10:55:00,,0820.6,5.01,0.00,22.5,22.2,00.0,31.4,24.3,11.9,0000.0,0018.13,0004.82,0003.15
2021-12-08 10:56:00,,0820.6,4.99,0.00,22.5,22.1,00.0,31.4,24.3,11.9,0000.0,0018.25,0004.77,0003.15
2021-12-08 10:57:00,,0820.6,5.00,0.00,22.5,22.1,00.0,31.4,24.3,11.9,0000.0,0019.26,0004.83,0003.17
2021-12-08 10:58:00,,0820.6,5.00,0.00,22.5,22.0,00.0,31.4,24.3,11.9,0000.0,0019.15,0004.88,0003.19
2021-12-08 10:59:00,,0820.5,5.01,0.00,22.5,22.0,00.0,31.4,24.3,11.9,0000.0,0018.35,0004.91,0003.20
